Tracking 19224 objects as of 22-Jul-2018
HD Live streaming from Space Station
objects crossing your sky now

ARIANE 5 DEB (SYLDA)

Track ARIANE 5 DEB (SYLDA) now!
10-day predictions


NORAD ID: 33155
Int'l Code: 2008-034C
Perigee: 272.1 km
Apogee: 25,522.6 km
Inclination: 2.0 °
Period: 443.6 minutes
Semi major axis: 19268 km
RCS: 19.978 m2 (large)
Launch date: July 7, 2008
Source: France (FR)
Launch site: FRENCH GUIANA (FRGUI)

Note: This is SATELLITE DEBRIS
aabbcc
Your satellite tracking list
Your tracking list is empty




NASA's NSSDC Master Catalog

Two Line Element Set (TLE):
1 33155U 08034C   18203.02425436  .00006426  00000-0  13905-2 0  9990
2 33155   1.9952   6.3528 6552336 319.8250   6.6568  3.24591168 99364
Source of the keplerian elements: AFSPC